Flag for Brazil Weather past 2 weeks in Porto Velho, Rondônia, Brazil

Now
73 °F

Clear.


Feels Like: 70 °F
Forecast: 73 / 90 °F
Wind: No wind

Location: Porto Velho Aeroporto

Current Time: Sep 21, 2014 at 2:09:19 AM

Latest Report: Sep 21, 2014 at 1:00 AM


Visibility: 10 mi

Pressure: 29.86 "Hg

Humidity: 94%

Dew point: 72 °F

Location of Porto VelhoLocation

Historic Weather in Porto Velho — Graph

°F

Porto Velho temperature yesterday

Maximum temperature yesterday: 93 °F (at 2:00 PM)
Minimum temperature yesterday: 73 °F (at 12:00 AM)
Average temperature yesterday: 79 °F

Past Weeks' High & Low Weather Summary

 TemperatureHumidityPressure
High97 °F (Sep 6, 4:00 PM)94% (Sep 6, 3:00 AM)29.98 "Hg (Sep 6, 3:00 AM)
Low70 °F (Sep 14, 5:00 AM)32% (Sep 6, 4:00 PM)29.65 "Hg (Sep 11, 5:00 PM)
Average80 °F75%29.85 "Hg
* Reported Sep 6 1:00 AM — Sep 21 1:00 AM, Porto Velho, Weather by CustomWeather, © 2014

Note: Actual official high and low records may vary slightly from our data, if they occured in-between our weather recording intervals... More about our weather records

Advertising

Porto Velho weather history for previous 24 hours

 ConditionsComfort  
Time TempWeatherWind HumidityBarometerVisibility
1:00 AM
Sep 21
73 °FClear.No wind94%29.86 "Hg10 mi
12:00 AM75 °FClear.2 mph89%29.89 "Hg10 mi
11:00 PM
Sep 20
75 °FClear.No wind89%29.89 "Hg10 mi
10:00 PM75 °FPassing clouds.No wind83%29.89 "HgN/A
9:00 PM79 °FPassing clouds.2 mph74%29.86 "HgN/A
8:00 PM77 °FPassing clouds.2 mph83%29.83 "HgN/A
7:00 PM79 °FPassing clouds.2 mph74%29.83 "HgN/A
6:00 PM81 °FScattered clouds.5 mph70%29.77 "HgN/A
5:00 PM81 °FScattered clouds.3 mph66%29.77 "HgN/A
4:00 PM82 °FThunderstorms. Scattered clouds.2 mph66%29.77 "HgN/A
3:05 PM84 °FThunderstorms. Scattered clouds.3 mph62%29.77 "HgN/A
3:00 PM91 °FScattered clouds.9 mph49%29.77 "HgN/A
2:00 PM93 °FScattered clouds.2 mph44%29.80 "HgN/A
9:00 AM81 °FSunny.8 mph66%29.92 "Hg10 mi
8:00 AM79 °FSunny.6 mph70%29.89 "Hg10 mi
7:00 AM75 °FSunny.5 mph83%29.89 "Hg10 mi
6:00 AM73 °FClear.3 mph94%29.86 "Hg10 mi
5:00 AM73 °FClear.2 mph94%29.83 "Hg5 mi
4:00 AM73 °FClear.2 mph94%29.80 "Hg10 mi
3:00 AM75 °FClear.5 mph83%29.80 "Hg10 mi
2:00 AM75 °FClear.5 mph83%29.80 "Hg10 mi
Weather by CustomWeather, © 2014

See weather overviewHow to use our weather pages